| time (UTC) | temp F | wind direction | speed MPH | gust MPH | rain 1hr in | rain 24hr in | rain mn in | humidity % | barometer mb |
| 20260903224311 | 102 | 351 | 8.0 | 11.0 | 0.00 | 0.00 | 0.00 | 17 | 1006.4 |
| 20260903223247 | 102 | 351 | 8.0 | 15.0 | 0.00 | 0.00 | 0.00 | 17 | 1006.4 |
| 20260903222417 | 102 | 351 | 7.0 | 10.0 | 0.00 | 0.00 | 0.00 | 17 | 1007.4 |
| 20260903222223 | 102 | 351 | 7.0 | 10.0 | 0.00 | 0.00 | 0.00 | 17 | 1007.4 |
| 20260903221218 | 103 | 351 | 8.0 | 10.0 | 0.00 | 0.00 | 0.00 | 16 | 1007.4 |
| 20260903221136 | 103 | 351 | 8.0 | 10.0 | 0.00 | 0.00 | 0.00 | 16 | 1007.4 |
| 20260903220112 | 103 | 351 | 9.0 | 10.0 | 0.00 | 0.00 | 0.00 | 17 | 1007.4 |
| 20260903215241 | 103 | 351 | 10.0 | 12.0 | 0.00 | 0.00 | 0.00 | 18 | 1007.4 |
| 20260903215048 | 103 | 351 | 10.0 | 12.0 | 0.00 | 0.00 | 0.00 | 18 | 1007.4 |
| 20260903214100 | 102 | 351 | 7.0 | 10.0 | 0.00 | 0.00 | 0.00 | 19 | 1007.4 |
| 20260903214019 | 102 | 351 | 7.0 | 10.0 | 0.00 | 0.00 | 0.00 | 19 | 1007.4 |
| 20260903212955 | 103 | 351 | 7.0 | 9.0 | 0.00 | 0.00 | 0.00 | 18 | 1007.4 |
| 20260903211932 | 104 | 351 | 11.0 | 13.0 | 0.00 | 0.00 | 0.00 | 17 | 1007.4 |
| 20260903210902 | 104 | 351 | 11.0 | 13.0 | 0.00 | 0.00 | 0.00 | 17 | 1007.4 |
| 20260903205837 | 103 | 351 | 6.0 | 12.0 | 0.00 | 0.00 | 0.00 | 18 | 1007.4 |
| 20260903204813 | 103 | 351 | 7.0 | 7.0 | 0.00 | 0.00 | 0.00 | 19 | 1007.4 |
| 20260903203651 | 103 | 351 | 7.0 | 13.0 | 0.00 | 0.00 | 0.00 | 19 | 1007.4 |
| 20260903202627 | 103 | 351 | 9.0 | 16.0 | 0.00 | 0.00 | 0.00 | 18 | 1008.4 |
| 20260903201603 | 103 | 351 | 8.0 | 14.0 | 0.00 | 0.00 | 0.00 | 19 | 1008.4 |
| 20260903200539 | 103 | 351 | 12.0 | 12.0 | 0.00 | 0.00 | 0.00 | 20 | 1008.4 |
| 20260903195515 | 103 | 351 | 7.0 | 11.0 | 0.00 | 0.00 | 0.00 | 20 | 1008.4 |
| 20260903194451 | 103 | 351 | 5.0 | 13.0 | 0.00 | 0.00 | 0.00 | 22 | 1008.4 |
| 20260903193427 | 102 | 351 | 10.0 | 10.0 | 0.00 | 0.00 | 0.00 | 23 | 1008.4 |
| 20260903192358 | 101 | 351 | 5.0 | 9.0 | 0.00 | 0.00 | 0.00 | 24 | 1009.4 |
| 20260903191329 | 101 | 351 | 7.0 | 11.0 | 0.00 | 0.00 | 0.00 | 25 | 1009.4 |
| 20260903190304 | 100 | 351 | 6.0 | 10.0 | 0.00 | 0.00 | 0.00 | 26 | 1009.4 |
| 20260903185241 | 100 | 351 | 10.0 | 10.0 | 0.00 | 0.00 | 0.00 | 26 | 1009.4 |
| 20260903184217 | 99 | 351 | 9.0 | 9.0 | 0.00 | 0.00 | 0.00 | 27 | 1010.4 |
| 20260903183153 | 98 | 351 | 0.0 | 12.0 | 0.00 | 0.00 | 0.00 | 29 | 1010.4 |
| 20260903182114 | 98 | 351 | 5.0 | 13.0 | 0.00 | 0.00 | 0.00 | 29 | 1010.4 |
| 20260903181051 | 97 | 351 | 6.0 | 10.0 | 0.00 | 0.00 | 0.00 | 30 | 1010.4 |
| 20260903180023 | 97 | 351 | 6.0 | 11.0 | 0.00 | 0.00 | 0.00 | 30 | 1010.4 |
| 20260903174959 | 97 | 351 | 7.0 | 11.0 | 0.00 | 0.00 | 0.00 | 31 | 1010.4 |
| 20260903173935 | 96 | 351 | 5.0 | 10.0 | 0.00 | 0.00 | 0.00 | 32 | 1011.4 |
| 20260903172911 | 96 | 351 | 5.0 | 9.0 | 0.00 | 0.00 | 0.00 | 33 | 1011.4 |
| 20260903171834 | 95 | 351 | 5.0 | 12.0 | 0.00 | 0.00 | 0.00 | 35 | 1011.4 |
| 20260903170810 | 94 | 351 | 5.0 | 7.0 | 0.00 | 0.00 | 0.00 | 36 | 1011.4 |
| 20260903165745 | 93 | 351 | 7.0 | 8.0 | 0.00 | 0.00 | 0.00 | 37 | 1012.4 |
| 20260903164721 | 93 | 351 | 6.0 | 10.0 | 0.00 | 0.00 | 0.00 | 39 | 1012.4 |
| 20260903163643 | 91 | 351 | 5.0 | 11.0 | 0.00 | 0.00 | 0.00 | 40 | 1012.4 |
| 20260903162605 | 90 | 351 | 5.0 | 10.0 | 0.00 | 0.00 | 0.00 | 41 | 1012.4 |
| 20260903160518 | 89 | 351 | 4.0 | 10.0 | 0.00 | 0.00 | 0.00 | 45 | 1012.4 |
| 20260903155454 | 88 | 351 | 8.0 | 10.0 | 0.00 | 0.00 | 0.00 | 46 | 1012.4 |
| 20260903154426 | 87 | 351 | 5.0 | 11.0 | 0.00 | 0.00 | 0.00 | 49 | 1012.4 |
| 20260903153403 | 87 | 351 | 7.0 | 11.0 | 0.00 | 0.00 | 0.00 | 50 | 1012.4 |
| 20260903152339 | 86 | 351 | 8.0 | 11.0 | 0.00 | 0.00 | 0.00 | 55 | 1013.4 |
| 20260903151316 | 84 | 351 | 7.0 | 11.0 | 0.00 | 0.00 | 0.00 | 57 | 1013.4 |
| 20260903150252 | 84 | 351 | 10.0 | 10.0 | 0.00 | 0.00 | 0.00 | 59 | 1013.4 |
| 20260903145229 | 83 | 351 | 8.0 | 10.0 | 0.00 | 0.00 | 0.00 | 60 | 1013.4 |
| 20260903144206 | 83 | 351 | 9.0 | 9.0 | 0.00 | 0.00 | 0.00 | 61 | 1013.4 |
| 20260903143142 | 83 | 351 | 7.0 | 10.0 | 0.00 | 0.00 | 0.00 | 62 | 1013.4 |
| 20260903142119 | 83 | 347 | 7.0 | 11.0 | 0.00 | 0.00 | 0.00 | 63 | 1013.4 |
| 20260903141056 | 82 | 347 | 6.0 | 10.0 | 0.00 | 0.00 | 0.00 | 64 | 1013.4 |
| 20260903140033 | 81 | 351 | 8.0 | 10.0 | 0.00 | 0.00 | 0.00 | 67 | 1013.4 |
| 20260903135010 | 81 | 347 | 6.0 | 10.0 | 0.00 | 0.00 | 0.00 | 70 | 1014.4 |
| 20260903133947 | 80 | 347 | 6.0 | 9.0 | 0.00 | 0.00 | 0.00 | 75 | 1014.4 |
| 20260903132923 | 79 | 351 | 6.0 | 9.0 | 0.00 | 0.00 | 0.00 | 78 | 1014.4 |
| 20260903131901 | 78 | 347 | 7.0 | 9.0 | 0.00 | 0.00 | 0.00 | 82 | 1014.4 |
| 20260903130837 | 78 | 347 | 6.0 | 8.0 | 0.00 | 0.00 | 0.00 | 86 | 1014.4 |
| 20260903125814 | 77 | 347 | 6.0 | 8.0 | 0.00 | 0.00 | 0.00 | 87 | 1014.4 |
| 20260903124751 | 77 | 347 | 7.0 | 8.0 | 0.00 | 0.00 | 0.00 | 87 | 1014.4 |
| 20260903123728 | 76 | 347 | 7.0 | 10.0 | 0.00 | 0.00 | 0.00 | 86 | 1014.4 |
| 20260903122705 | 76 | 347 | 7.0 | 9.0 | 0.00 | 0.00 | 0.00 | 85 | 1014.4 |
| 20260903121642 | 76 | 347 | 7.0 | 8.0 | 0.00 | 0.00 | 0.00 | 85 | 1014.4 |
| 20260903120619 | 76 | 347 | 6.0 | 9.0 | 0.00 | 0.00 | 0.00 | 83 | 1013.4 |
| 20260903115556 | 76 | 347 | 7.0 | 8.0 | 0.00 | 0.00 | 0.00 | 83 | 1013.4 |
| 20260903114533 | 77 | 347 | 6.0 | 8.0 | 0.00 | 0.00 | 0.00 | 82 | 1013.4 |
| 20260903113510 | 77 | 347 | 8.0 | 10.0 | 0.00 | 0.00 | 0.00 | 79 | 1013.4 |
| 20260903111424 | 77 | 347 | 7.0 | 8.0 | 0.00 | 0.00 | 0.00 | 78 | 1013.4 |
| 20260903110401 | 77 | 347 | 7.0 | 8.0 | 0.00 | 0.00 | 0.00 | 77 | 1013.4 |
| 20260903105324 | 77 | 351 | 7.0 | 8.0 | 0.00 | 0.00 | 0.00 | 76 | 1013.4 |
| 20260903104301 | 77 | 351 | 6.0 | 8.0 | 0.00 | 0.00 | 0.00 | 74 | 1013.4 |
| 20260903103210 | 78 | 351 | 7.0 | 8.0 | 0.00 | 0.00 | 0.00 | 73 | 1013.4 |
| 20260903102147 | 78 | 351 | 7.0 | 8.0 | 0.00 | 0.00 | 0.00 | 71 | 1013.4 |
| 20260903101110 | 78 | 351 | 7.0 | 9.0 | 0.00 | 0.00 | 0.00 | 69 | 1013.4 |
| 20260903100047 | 78 | 351 | 7.0 | 8.0 | 0.00 | 0.00 | 0.00 | 69 | 1013.4 |
| 20260903095000 | 78 | 351 | 6.0 | 9.0 | 0.00 | 0.00 | 0.00 | 68 | 1013.4 |
| 20260903093932 | 79 | 351 | 7.0 | 10.0 | 0.00 | 0.00 | 0.00 | 66 | 1013.4 |
| 20260903092909 | 79 | 351 | 7.0 | 8.0 | 0.00 | 0.00 | 0.00 | 65 | 1013.4 |
| 20260903091846 | 79 | 351 | 7.0 | 9.0 | 0.00 | 0.00 | 0.00 | 64 | 1013.4 |
| 20260903090823 | 79 | 351 | 7.0 | 8.0 | 0.00 | 0.00 | 0.00 | 62 | 1013.4 |
| 20260903085800 | 80 | 351 | 6.0 | 8.0 | 0.00 | 0.00 | 0.00 | 61 | 1013.4 |
| 20260903084737 | 80 | 351 | 7.0 | 8.0 | 0.00 | 0.00 | 0.00 | 60 | 1013.4 |
| 20260903082458 | 81 | 351 | 5.0 | 7.0 | 0.00 | 0.00 | 0.00 | 58 | 1013.4 |
| 20260903081257 | 81 | 351 | 7.0 | 9.0 | 0.00 | 0.00 | 0.00 | 57 | 1013.4 |
| 20260903080234 | 82 | 351 | 9.0 | 12.0 | 0.00 | 0.00 | 0.00 | 56 | 1013.4 |
| 20260903075207 | 82 | 351 | 9.0 | 11.0 | 0.00 | 0.00 | 0.00 | 55 | 1013.4 |
| 20260903074139 | 82 | 351 | 6.0 | 10.0 | 0.00 | 0.00 | 0.00 | 54 | 1013.4 |
| 20260903073108 | 83 | 351 | 9.0 | 12.0 | 0.00 | 0.00 | 0.00 | 53 | 1013.4 |
| 20260903071020 | 83 | 351 | 9.0 | 11.0 | 0.00 | 0.00 | 0.00 | 52 | 1013.4 |
| 20260903065951 | 83 | 351 | 10.0 | 13.0 | 0.00 | 0.00 | 0.00 | 51 | 1013.4 |
| 20260903064923 | 84 | 351 | 9.0 | 12.0 | 0.00 | 0.00 | 0.00 | 50 | 1013.4 |
| 20260903063859 | 84 | 351 | 10.0 | 13.0 | 0.00 | 0.00 | 0.00 | 49 | 1013.4 |
| 20260903062835 | 85 | 351 | 12.0 | 12.0 | 0.00 | 0.00 | 0.00 | 48 | 1013.4 |
| 20260903061812 | 85 | 351 | 11.0 | 15.0 | 0.00 | 0.00 | 0.00 | 48 | 1013.4 |
| 20260903060744 | 85 | 351 | 12.0 | 18.0 | 0.00 | 0.00 | 0.00 | 48 | 1013.4 |
| 20260903055717 | 85 | 351 | 15.0 | 18.0 | 0.00 | 0.00 | 0.00 | 48 | 1013.4 |
| 20260903054654 | 85 | 351 | 9.0 | 10.0 | 0.00 | 0.00 | 0.00 | 47 | 1013.4 |
| 20260903052608 | 85 | 351 | 10.0 | 14.0 | 0.00 | 0.00 | 0.00 | 45 | 1012.4 |
| 20260903051544 | 85 | 351 | 12.0 | 14.0 | 0.00 | 0.00 | 0.00 | 43 | 1012.4 |
| 20260903050521 | 85 | 351 | 8.0 | 10.0 | 0.00 | 0.00 | 0.00 | 39 | 1012.4 |
| 20260903045457 | 85 | 351 | 7.0 | 8.0 | 0.00 | 0.00 | 0.00 | 38 | 1012.4 |
| 20260903044434 | 86 | 351 | 8.0 | 10.0 | 0.00 | 0.00 | 0.00 | 36 | 1012.4 |
| 20260903043412 | 86 | 351 | 7.0 | 9.0 | 0.00 | 0.00 | 0.00 | 34 | 1012.4 |
| 20260903042348 | 87 | 351 | 8.0 | 10.0 | 0.00 | 0.00 | 0.00 | 33 | 1012.4 |
| 20260903041324 | 87 | 351 | 10.0 | 12.0 | 0.00 | 0.00 | 0.00 | 33 | 1012.4 |
| 20260903040302 | 88 | 351 | 11.0 | 14.0 | 0.00 | 0.00 | 0.00 | 32 | 1012.4 |
| 20260903035238 | 88 | 351 | 13.0 | 16.0 | 0.00 | 0.00 | 0.00 | 30 | 1012.4 |
| 20260903034214 | 88 | 351 | 18.0 | 18.0 | 0.00 | 0.00 | 0.00 | 29 | 1011.4 |
| 20260903033151 | 88 | 351 | 8.0 | 10.0 | 0.00 | 0.00 | 0.00 | 27 | 1011.4 |
| 20260903032128 | 89 | 351 | 8.0 | 8.0 | 0.00 | 0.00 | 0.00 | 27 | 1011.4 |
| 20260903031104 | 89 | 351 | 8.0 | 8.0 | 0.00 | 0.00 | 0.00 | 27 | 1011.4 |
| 20260903030041 | 89 | 351 | 8.0 | 10.0 | 0.00 | 0.00 | 0.00 | 27 | 1011.4 |
| 20260903025016 | 90 | 351 | 7.0 | 9.0 | 0.00 | 0.00 | 0.00 | 27 | 1010.4 |
| 20260903023952 | 90 | 351 | 8.0 | 10.0 | 0.00 | 0.00 | 0.00 | 26 | 1010.4 |
| 20260903022929 | 91 | 351 | 8.0 | 11.0 | 0.00 | 0.00 | 0.00 | 24 | 1010.4 |
| 20260903021905 | 91 | 351 | 9.0 | 10.0 | 0.00 | 0.00 | 0.00 | 24 | 1010.4 |
| 20260903020841 | 92 | 351 | 9.0 | 9.0 | 0.00 | 0.00 | 0.00 | 23 | 1010.4 |
| 20260903015817 | 92 | 351 | 7.0 | 8.0 | 0.00 | 0.00 | 0.00 | 22 | 1010.4 |
| 20260903014755 | 93 | 351 | 7.0 | 8.0 | 0.00 | 0.00 | 0.00 | 21 | 1010.4 |
| 20260903013731 | 94 | 351 | 7.0 | 8.0 | 0.00 | 0.00 | 0.00 | 21 | 1010.4 |
| 20260903012706 | 94 | 351 | 7.0 | 8.0 | 0.00 | 0.00 | 0.00 | 20 | 1009.4 |
| 20260903010619 | 96 | 351 | 5.0 | 6.0 | 0.00 | 0.00 | 0.00 | 20 | 1009.4 |
| 20260903005556 | 96 | 351 | 5.0 | 6.0 | 0.00 | 0.00 | 0.00 | 19 | 1009.4 |
| 20260903004532 | 97 | 351 | 5.0 | 6.0 | 0.00 | 0.00 | 0.00 | 19 | 1009.4 |
| 20260903003509 | 98 | 351 | 6.0 | 7.0 | 0.00 | 0.00 | 0.00 | 18 | 1009.4 |
| 20260903002445 | 98 | 351 | 5.0 | 8.0 | 0.00 | 0.00 | 0.00 | 17 | 1009.4 |
| 20260903001421 | 99 | 351 | 6.0 | 11.0 | 0.00 | 0.00 | 0.00 | 18 | 1009.4 |
| 20260903000357 | 99 | 351 | 9.0 | 10.0 | 0.00 | 0.00 | 0.00 | 17 | 1009.4 |
| 20260902235333 | 99 | 351 | 9.0 | 10.0 | 0.00 | 0.00 | 0.00 | 17 | 1009.4 |
| 20260902234309 | 100 | 351 | 10.0 | 8.0 | 0.00 | 0.00 | 0.00 | 17 | 1009.4 |
| 20260902233246 | 100 | 351 | 8.0 | 10.0 | 0.00 | 0.00 | 0.00 | 17 | 1009.4 |
| 20260902232222 | 100 | 351 | 8.0 | 12.0 | 0.00 | 0.00 | 0.00 | 17 | 1008.4 |
| 20260902231158 | 101 | 351 | 9.0 | 11.0 | 0.00 | 0.00 | 0.00 | 17 | 1008.4 |
| 20260902230134 | 101 | 351 | 7.0 | 9.0 | 0.00 | 0.00 | 0.00 | 17 | 1008.4 |
| 20260902225110 | 101 | 351 | 9.0 | 10.0 | 0.00 | 0.00 | 0.00 | 17 | 1008.4 |